When you browse on this site, cookies collect data to enhance your experience and personalize the content and advertising you see.
Visit our Privacy Policy to learn more. By continuing to use the site, you agree to this use of cookies and data.
  • en Suisse
  • Liste des pays
  • À 7 jours
  • Température de l'eau
  • Carte météo
  • Widgets météo
  • user-avatar
    Se connecter

    Météo par heure à Nam Dinh

    Ce jour, 19 Septembre, Jeudi

    Heure Température Précipitation Vent Pression Humidité
    00:00 +27°C° 1.8 mm 3 m/s 758 mmHg 89%
    01:00 +27°C° 0 mm 3 m/s 758 mmHg 91%
    02:00 +27°C° 2.2 mm 3 m/s 758 mmHg 91%
    03:00 +27°C° 2.2 mm 3 m/s 758 mmHg 91%
    04:00 +26°C° 2.2 mm 3 m/s 758 mmHg 91%
    05:00 +27°C° 0.3 mm 3 m/s 758 mmHg 91%
    06:00 +27°C° 0.3 mm 3 m/s 759 mmHg 90%
    07:00 +28°C° 0 mm 2 m/s 759 mmHg 94%
    08:00 +29°C° 1.2 mm 2 m/s 759 mmHg 85%
    09:00 +31°C° 1.2 mm 2 m/s 759 mmHg 77%
    10:00 +34°C° 1.2 mm 2 m/s 759 mmHg 69%
    11:00 +34°C° 0.9 mm 2 m/s 759 mmHg 67%
    12:00 +34°C° 0.9 mm 3 m/s 758 mmHg 65%
    13:00 +34°C° 0.9 mm 3 m/s 758 mmHg 64%
    14:00 +34°C° 0.6 mm 3 m/s 757 mmHg 66%
    15:00 +34°C° 0.6 mm 3 m/s 757 mmHg 68%
    16:00 +33°C° 0.6 mm 3 m/s 756 mmHg 71%
    17:00 +31°C° 0.6 mm 2 m/s 757 mmHg 75%
    18:00 +30°C° 0.6 mm 2 m/s 757 mmHg 80%
    19:00 +28°C° 0.6 mm 1 m/s 757 mmHg 85%
    20:00 +28°C° 0.6 mm 1 m/s 758 mmHg 84%
    21:00 +28°C° 0.6 mm 1 m/s 758 mmHg 84%
    22:00 +26°C° 0.6 mm 0 m/s 759 mmHg 84%
    23:00 +28°C° 0.4 mm 1 m/s 758 mmHg 85%

    Demain, 20 Septembre, Vendredi

    Heure Température Précipitation Vent Pression Humidité
    00:00 +28°C° 0.4 mm 1 m/s 758 mmHg 86%
    01:00 +27°C° 0.4 mm 1 m/s 758 mmHg 87%
    02:00 +27°C° 0.1 mm 1 m/s 757 mmHg 87%
    03:00 +27°C° 0.1 mm 2 m/s 757 mmHg 88%
    04:00 +27°C° 0.1 mm 2 m/s 757 mmHg 88%
    05:00 +27°C° 0.2 mm 2 m/s 757 mmHg 88%
    06:00 +27°C° 0.2 mm 3 m/s 758 mmHg 88%
    07:00 +27°C° 0.2 mm 3 m/s 758 mmHg 88%
    08:00 +29°C° 0.8 mm 3 m/s 758 mmHg 83%
    09:00 +30°C° 0.8 mm 3 m/s 758 mmHg 78%
    10:00 +33°C° 0.8 mm 3 m/s 758 mmHg 73%
    11:00 +33°C° 0.7 mm 3 m/s 758 mmHg 70%
    12:00 +34°C° 0.7 mm 3 m/s 757 mmHg 67%
    13:00 +34°C° 0.7 mm 3 m/s 756 mmHg 64%
    14:00 +34°C° 0.2 mm 3 m/s 756 mmHg 65%
    15:00 +33°C° 0.2 mm 3 m/s 755 mmHg 67%
    16:00 +33°C° 0.2 mm 4 m/s 755 mmHg 68%
    17:00 +31°C° 0.1 mm 3 m/s 755 mmHg 72%
    18:00 +29°C° 0.1 mm 3 m/s 756 mmHg 76%
    19:00 +28°C° 0.1 mm 2 m/s 756 mmHg 80%
    20:00 +28°C° 0.1 mm 2 m/s 757 mmHg 81%
    21:00 +28°C° 0.1 mm 1 m/s 758 mmHg 82%
    22:00 +28°C° 0.1 mm 1 m/s 758 mmHg 83%
    23:00 +27°C° 0.2 mm 1 m/s 758 mmHg 83%

    Après-demain, 21 Septembre, Samedi

    Heure Température Précipitation Vent Pression Humidité
    00:00 +27°C° 0.2 mm 1 m/s 758 mmHg 84%
    01:00 +27°C° 0.2 mm 1 m/s 758 mmHg 85%
    02:00 +27°C° 0.1 mm 2 m/s 757 mmHg 86%
    03:00 +26°C° 0.1 mm 2 m/s 757 mmHg 87%
    04:00 +26°C° 0.1 mm 2 m/s 757 mmHg 88%
    05:00 +26°C° 0 mm 3 m/s 757 mmHg 87%
    06:00 +27°C° 0 mm 3 m/s 757 mmHg 86%
    07:00 +27°C° 0 mm 4 m/s 758 mmHg 85%
    08:00 +29°C° 0 mm 4 m/s 758 mmHg 78%
    09:00 +30°C° 0 mm 5 m/s 758 mmHg 70%
    10:00 +32°C° 0 mm 6 m/s 759 mmHg 63%
    11:00 +33°C° 0 mm 6 m/s 758 mmHg 60%
    12:00 +34°C° 0 mm 6 m/s 758 mmHg 57%
    13:00 +34°C° 0 mm 6 m/s 757 mmHg 54%
    14:00 +34°C° 0 mm 6 m/s 757 mmHg 55%
    15:00 +34°C° 0 mm 5 m/s 756 mmHg 56%
    16:00 +34°C° 0 mm 5 m/s 756 mmHg 57%
    17:00 +32°C° 0 mm 4 m/s 756 mmHg 61%
    18:00 +30°C° 0 mm 4 m/s 757 mmHg 65%
    19:00 +28°C° 0 mm 4 m/s 758 mmHg 69%
    20:00 +28°C° 0.1 mm 4 m/s 758 mmHg 69%
    21:00 +28°C° 0.1 mm 4 m/s 759 mmHg 69%
    22:00 +28°C° 0.1 mm 4 m/s 760 mmHg 69%
    23:00 +27°C° 0 mm 4 m/s 760 mmHg 70%

    22 Septembre, Dimanche

    Heure Température Précipitation Vent Pression Humidité
    00:00 +26°C° 0 mm 4 m/s 760 mmHg 72%
    01:00 +26°C° 0 mm 4 m/s 759 mmHg 74%
    02:00 +26°C° 0 mm 4 m/s 759 mmHg 74%
    03:00 +25°C° 0 mm 4 m/s 759 mmHg 73%
    04:00 +25°C° 0 mm 4 m/s 759 mmHg 73%
    05:00 +25°C° 0 mm 4 m/s 760 mmHg 73%
    06:00 +26°C° 0 mm 5 m/s 760 mmHg 72%
    07:00 +26°C° 0 mm 5 m/s 761 mmHg 71%
    08:00 +27°C° 0 mm 5 m/s 761 mmHg 66%
    09:00 +29°C° 0 mm 5 m/s 761 mmHg 61%
    10:00 +30°C° 0 mm 5 m/s 762 mmHg 55%
    11:00 +32°C° 0 mm 5 m/s 761 mmHg 52%
    12:00 +32°C° 0 mm 5 m/s 761 mmHg 49%
    13:00 +33°C° 0 mm 6 m/s 760 mmHg 46%
    14:00 +33°C° 0 mm 5 m/s 760 mmHg 47%
    15:00 +32°C° 0 mm 5 m/s 760 mmHg 48%
    16:00 +32°C° 0 mm 5 m/s 759 mmHg 49%
    17:00 +30°C° 0 mm 4 m/s 760 mmHg 54%
    18:00 +28°C° 0 mm 3 m/s 760 mmHg 59%
    19:00 +26°C° 0 mm 3 m/s 761 mmHg 64%
    20:00 +26°C° 0 mm 3 m/s 761 mmHg 65%
    21:00 +26°C° 0 mm 2 m/s 762 mmHg 66%
    22:00 +25°C° 0 mm 2 m/s 762 mmHg 66%
    23:00 +25°C° 0 mm 2 m/s 762 mmHg 67%

    23 Septembre, Lundi

    Heure Température Précipitation Vent Pression Humidité
    00:00 +24°C° 0 mm 2 m/s 762 mmHg 67%
    01:00 +24°C° 0 mm 2 m/s 762 mmHg 67%
    02:00 +22°C° 0 mm 3 m/s 762 mmHg 68%
    03:00 +22°C° 0 mm 3 m/s 761 mmHg 69%
    04:00 +21°C° 0 mm 3 m/s 761 mmHg 69%
    05:00 +22°C° 0 mm 3 m/s 762 mmHg 70%
    06:00 +22°C° 0 mm 3 m/s 762 mmHg 71%
    07:00 +22°C° 0 mm 3 m/s 763 mmHg 72%
    08:00 +25°C° 0 mm 4 m/s 763 mmHg 64%
    09:00 +27°C° 0 mm 4 m/s 763 mmHg 57%
    10:00 +29°C° 0 mm 4 m/s 763 mmHg 49%
    11:00 +30°C° 0 mm 4 m/s 763 mmHg 46%
    12:00 +32°C° 0 mm 4 m/s 762 mmHg 43%
    13:00 +33°C° 0 mm 4 m/s 761 mmHg 39%
    14:00 +32°C° 0 mm 4 m/s 761 mmHg 41%
    15:00 +31°C° 0 mm 3 m/s 761 mmHg 43%
    16:00 +31°C° 0 mm 3 m/s 761 mmHg 45%
    17:00 +29°C° 0 mm 3 m/s 761 mmHg 51%
    18:00 +27°C° 0 mm 3 m/s 761 mmHg 56%
    19:00 +26°C° 0 mm 2 m/s 762 mmHg 62%
    20:00 +25°C° 0 mm 2 m/s 762 mmHg 62%
    21:00 +25°C° 0 mm 1 m/s 763 mmHg 63%
    22:00 +25°C° 0 mm 1 m/s 763 mmHg 64%
    23:00 +24°C° 0 mm 1 m/s 763 mmHg 65%

    24 Septembre, Mardi

    Heure Température Précipitation Vent Pression Humidité
    00:00 +24°C° 0 mm 2 m/s 763 mmHg 67%
    01:00 +24°C° 0 mm 2 m/s 762 mmHg 68%
    02:00 +23°C° 0 mm 2 m/s 762 mmHg 70%
    03:00 +22°C° 0 mm 3 m/s 762 mmHg 71%
    04:00 +21°C° 0 mm 3 m/s 762 mmHg 73%
    05:00 +22°C° 0 mm 3 m/s 762 mmHg 73%
    06:00 +22°C° 0 mm 3 m/s 762 mmHg 73%
    07:00 +22°C° 0 mm 4 m/s 763 mmHg 73%
    08:00 +25°C° 0 mm 4 m/s 763 mmHg 66%
    09:00 +27°C° 0 mm 4 m/s 763 mmHg 60%
    10:00 +29°C° 0 mm 4 m/s 763 mmHg 53%
    11:00 +30°C° 0 mm 4 m/s 763 mmHg 49%
    12:00 +31°C° 0 mm 3 m/s 762 mmHg 46%
    13:00 +33°C° 0 mm 3 m/s 762 mmHg 42%
    14:00 +33°C° 0 mm 3 m/s 761 mmHg 44%
    15:00 +31°C° 0 mm 2 m/s 761 mmHg 45%
    16:00 +31°C° 0 mm 2 m/s 760 mmHg 47%
    17:00 +29°C° 0 mm 2 m/s 761 mmHg 52%
    18:00 +28°C° 0 mm 2 m/s 761 mmHg 58%
    19:00 +26°C° 0 mm 2 m/s 762 mmHg 63%
    20:00 +26°C° 0 mm 2 m/s 762 mmHg 65%
    21:00 +25°C° 0 mm 1 m/s 763 mmHg 66%
    22:00 +25°C° 0 mm 1 m/s 763 mmHg 68%
    23:00 +25°C° 0 mm 1 m/s 763 mmHg 70%
    Voir plus